Tracking 35275 objects as of 9-Sep-2026
HD Live streaming from Space Station
objects crossing your sky now

STARLINK-34173

Track STARLINK-34173 now!
10-day predictions
STARLINK-34173 is classified as:


NORAD ID: 64196
Int'l Code: 2025-113AC
Launch date: May 28, 2025
Source: United States (US)
Launch site: AIR FORCE EASTERN TEST RANGE (AFETR)
Your satellite tracking list
Your tracking list is empty




NASA's NSSDC Master Catalog

Two Line Element Set (TLE):
1 64196U 25113AC  26250.52226345  .00015243  00000-0  50177-3 0  9990
2 64196  53.1600 325.1787 0001181 115.6150 244.4974 15.31712152 72928
Source of the keplerian elements: AFSPC